Year,Month,Day,Hour,Minute,Value (Times are PST for temperature in C)
2018,02,25,00,00,1.60
2018,02,25,00,01,1.50
2018,02,25,00,02,1.50
2018,02,25,00,03,1.40
2018,02,25,00,04,1.40
2018,02,25,00,05,1.40
2018,02,25,00,06,1.40
2018,02,25,00,07,1.40
2018,02,25,00,08,1.30
2018,02,25,00,09,1.30
2018,02,25,00,10,1.30
2018,02,25,00,11,1.30
2018,02,25,00,12,1.30
2018,02,25,00,13,1.30
2018,02,25,00,14,1.30
2018,02,25,00,15,1.30
2018,02,25,00,16,1.30
2018,02,25,00,17,1.30
2018,02,25,00,18,1.30
2018,02,25,00,19,1.30
2018,02,25,00,20,1.30
2018,02,25,00,21,1.30
2018,02,25,00,22,1.30
2018,02,25,00,23,1.30
2018,02,25,00,24,1.40
2018,02,25,00,25,1.40
2018,02,25,00,26,1.40
2018,02,25,00,27,1.40
2018,02,25,00,28,1.40
2018,02,25,00,29,1.50
2018,02,25,00,30,1.60
2018,02,25,00,31,1.60
2018,02,25,00,32,1.70
2018,02,25,00,33,1.70
2018,02,25,00,34,1.80
2018,02,25,00,35,1.80
2018,02,25,00,36,1.90
2018,02,25,00,37,2.00
2018,02,25,00,38,2.10
2018,02,25,00,39,2.10
2018,02,25,00,40,2.20
2018,02,25,00,41,2.30
2018,02,25,00,42,2.40
2018,02,25,00,43,2.50
2018,02,25,00,44,2.60
2018,02,25,00,45,2.70
2018,02,25,00,46,2.80
2018,02,25,00,47,2.80
2018,02,25,00,48,2.90
2018,02,25,00,49,3.00
2018,02,25,00,50,3.10
2018,02,25,00,51,3.10
2018,02,25,00,52,3.20
2018,02,25,00,53,3.20
2018,02,25,00,54,3.30
2018,02,25,00,55,3.30
2018,02,25,00,56,3.30
2018,02,25,00,57,3.30
2018,02,25,00,58,3.30
2018,02,25,00,59,3.40
2018,02,25,01,00,3.40
2018,02,25,01,01,3.40
2018,02,25,01,02,3.40
2018,02,25,01,03,3.40
2018,02,25,01,04,3.40
2018,02,25,01,05,3.50
2018,02,25,01,06,3.50
2018,02,25,01,07,3.50
2018,02,25,01,08,3.60
2018,02,25,01,09,3.60
2018,02,25,01,10,3.60
2018,02,25,01,11,3.70
2018,02,25,01,12,3.70
2018,02,25,01,13,3.70
2018,02,25,01,14,3.70
2018,02,25,01,15,3.80
2018,02,25,01,16,3.80
2018,02,25,01,17,3.80
2018,02,25,01,18,3.80
2018,02,25,01,19,3.90
2018,02,25,01,20,3.90
2018,02,25,01,21,3.90
2018,02,25,01,22,3.90
2018,02,25,01,23,3.90
2018,02,25,01,24,3.90
2018,02,25,01,25,3.90
2018,02,25,01,26,3.90
2018,02,25,01,27,3.90
2018,02,25,01,28,3.90
2018,02,25,01,29,3.90
2018,02,25,01,30,3.90
2018,02,25,01,31,3.90
2018,02,25,01,32,3.90
2018,02,25,01,33,3.90
2018,02,25,01,34,3.90
2018,02,25,01,35,3.90
2018,02,25,01,36,3.90
2018,02,25,01,37,3.90
2018,02,25,01,38,3.80
2018,02,25,01,39,3.80
2018,02,25,01,40,3.80
2018,02,25,01,41,3.80
2018,02,25,01,42,3.80
2018,02,25,01,43,3.80
2018,02,25,01,44,3.80
2018,02,25,01,45,3.80
2018,02,25,01,46,3.80
2018,02,25,01,47,3.80
2018,02,25,01,48,3.80
2018,02,25,01,49,3.80
2018,02,25,01,50,3.80
2018,02,25,01,51,3.80
2018,02,25,01,52,3.80
2018,02,25,01,53,3.80
2018,02,25,01,54,3.80
2018,02,25,01,55,3.80
2018,02,25,01,56,3.80
2018,02,25,01,57,3.80
2018,02,25,01,58,3.80
2018,02,25,01,59,3.70
2018,02,25,02,00,3.70
2018,02,25,02,01,3.60
2018,02,25,02,02,3.60
2018,02,25,02,03,3.50
2018,02,25,02,04,3.50
2018,02,25,02,05,3.50
2018,02,25,02,06,3.50
2018,02,25,02,07,3.40
2018,02,25,02,08,3.40
2018,02,25,02,09,3.40
2018,02,25,02,10,3.40
2018,02,25,02,11,3.40
2018,02,25,02,12,3.40
2018,02,25,02,13,3.40
2018,02,25,02,14,3.40
2018,02,25,02,15,3.40
2018,02,25,02,16,3.40
2018,02,25,02,17,3.40
2018,02,25,02,18,3.40
2018,02,25,02,19,3.40
2018,02,25,02,20,3.40
2018,02,25,02,21,3.40
2018,02,25,02,22,3.40
2018,02,25,02,23,3.40
2018,02,25,02,24,3.50
2018,02,25,02,25,3.50
2018,02,25,02,26,3.60
2018,02,25,02,27,3.60
2018,02,25,02,28,3.70
2018,02,25,02,29,3.80
2018,02,25,02,30,3.90
2018,02,25,02,31,3.90
2018,02,25,02,32,4.10
2018,02,25,02,33,4.10
2018,02,25,02,34,4.30
2018,02,25,02,35,4.40
2018,02,25,02,36,4.50
2018,02,25,02,37,4.70
2018,02,25,02,38,4.80
2018,02,25,02,39,4.90
2018,02,25,02,40,4.90
2018,02,25,02,41,5.00
2018,02,25,02,42,5.00
2018,02,25,02,43,5.10
2018,02,25,02,44,5.10
2018,02,25,02,45,5.10
2018,02,25,02,46,5.10
2018,02,25,02,47,5.00
2018,02,25,02,48,5.00
2018,02,25,02,49,4.90
2018,02,25,02,50,4.90
2018,02,25,02,51,4.90
2018,02,25,02,52,4.90
2018,02,25,02,53,4.80
2018,02,25,02,54,4.80
2018,02,25,02,55,4.70
2018,02,25,02,56,4.70
2018,02,25,02,57,4.70
2018,02,25,02,58,4.70
2018,02,25,02,59,4.70
2018,02,25,03,00,4.70
2018,02,25,03,01,4.80
2018,02,25,03,02,4.80
2018,02,25,11,03,4.80
2018,02,25,11,04,4.80
2018,02,25,11,05,4.80
2018,02,25,11,06,4.80
2018,02,25,11,07,4.80
2018,02,25,11,08,4.80
2018,02,25,11,09,4.90
2018,02,25,11,10,4.90
2018,02,25,11,11,4.90
2018,02,25,11,12,4.90
2018,02,25,11,13,4.80
2018,02,25,11,14,4.80
2018,02,25,11,15,4.80
2018,02,25,11,16,4.80
2018,02,25,11,17,4.80
2018,02,25,11,18,4.80
2018,02,25,11,19,4.80
2018,02,25,11,20,4.80
2018,02,25,11,21,4.70
2018,02,25,11,22,4.70
2018,02,25,11,23,4.60
2018,02,25,11,24,4.50
2018,02,25,11,25,4.50
2018,02,25,11,26,4.40
2018,02,25,11,27,4.40
2018,02,25,11,28,4.30
2018,02,25,11,29,4.30
2018,02,25,11,30,4.30
2018,02,25,11,31,4.20
2018,02,25,11,32,4.20
2018,02,25,11,33,4.20
2018,02,25,11,34,4.20
2018,02,25,11,35,4.20
2018,02,25,11,36,4.20
2018,02,25,11,37,4.20
2018,02,25,11,38,4.20
2018,02,25,11,39,4.30
2018,02,25,11,40,4.30
2018,02,25,11,41,4.30
2018,02,25,11,42,4.40
2018,02,25,11,43,4.50
2018,02,25,11,44,4.50
2018,02,25,11,45,4.50
2018,02,25,11,46,4.50
2018,02,25,11,47,4.60
2018,02,25,11,48,4.60
2018,02,25,11,49,4.60
2018,02,25,11,50,4.60
2018,02,25,11,51,4.60
2018,02,25,11,52,4.60
2018,02,25,11,53,4.60
2018,02,25,11,54,4.70
2018,02,25,11,55,4.80
2018,02,25,11,56,4.90
2018,02,25,11,57,5.00
2018,02,25,11,58,5.10
2018,02,25,11,59,5.20
2018,02,25,12,00,5.30
2018,02,25,12,01,5.40
2018,02,25,12,02,5.50
2018,02,25,12,03,5.50
2018,02,25,12,04,5.60
2018,02,25,12,05,5.60
2018,02,25,12,06,5.60
2018,02,25,12,07,5.70
2018,02,25,12,08,5.70
2018,02,25,12,09,5.60
2018,02,25,12,10,5.60
2018,02,25,12,11,5.50
2018,02,25,12,12,5.50
2018,02,25,12,13,5.40
2018,02,25,12,14,5.30
2018,02,25,12,15,5.30
2018,02,25,12,16,5.20
2018,02,25,12,17,5.20
2018,02,25,12,18,5.20
2018,02,25,12,19,5.10
2018,02,25,12,20,5.10
2018,02,25,12,21,5.10
2018,02,25,12,22,5.10
2018,02,25,12,23,5.10
2018,02,25,12,24,5.10
2018,02,25,12,25,5.10
2018,02,25,12,26,5.10
2018,02,25,12,27,5.10
2018,02,25,12,28,5.10
2018,02,25,12,29,5.10
2018,02,25,12,30,5.10
2018,02,25,12,31,5.10
2018,02,25,12,32,5.10
2018,02,25,12,33,5.10
2018,02,25,12,34,5.10
2018,02,25,12,35,5.10
2018,02,25,12,36,5.00
2018,02,25,12,37,5.00
2018,02,25,12,38,5.00
2018,02,25,12,39,4.90
2018,02,25,12,40,4.90
2018,02,25,12,41,4.90
2018,02,25,12,42,4.80
2018,02,25,12,43,4.80
2018,02,25,12,44,4.70
2018,02,25,12,45,4.70
2018,02,25,12,46,4.70
2018,02,25,12,47,4.70
2018,02,25,12,48,4.70
2018,02,25,12,49,4.80
2018,02,25,12,50,4.80
2018,02,25,12,51,4.80
2018,02,25,12,52,4.90
2018,02,25,12,53,4.90
2018,02,25,12,54,5.00
2018,02,25,12,55,5.00
2018,02,25,12,56,5.10
2018,02,25,12,57,5.10
2018,02,25,12,58,5.10
2018,02,25,12,59,5.20
2018,02,25,13,00,5.20
2018,02,25,13,01,5.20
2018,02,25,13,02,5.30
2018,02,25,13,03,5.40
2018,02,25,13,04,5.40
2018,02,25,13,05,5.40
2018,02,25,13,06,5.50
2018,02,25,13,07,5.50
2018,02,25,13,08,5.40
2018,02,25,13,09,5.40
2018,02,25,13,10,5.40
2018,02,25,13,11,5.30
2018,02,25,13,12,5.30
2018,02,25,13,13,5.30
2018,02,25,13,14,5.20
2018,02,25,13,15,5.20
2018,02,25,13,16,5.20
2018,02,25,13,17,5.10
2018,02,25,13,18,5.10
2018,02,25,13,19,5.00
2018,02,25,13,20,5.00
2018,02,25,13,21,5.00
2018,02,25,13,22,5.00
2018,02,25,13,23,4.90
2018,02,25,13,24,4.90
2018,02,25,13,25,4.80
2018,02,25,13,26,4.80
2018,02,25,13,27,4.80
2018,02,25,13,28,4.80
2018,02,25,13,29,4.80
2018,02,25,13,30,4.90
2018,02,25,13,31,4.90
2018,02,25,13,32,5.00
2018,02,25,13,33,5.10
2018,02,25,13,34,5.20
2018,02,25,13,35,5.30
2018,02,25,13,36,5.40
2018,02,25,13,37,5.50
2018,02,25,13,38,5.60
2018,02,25,13,39,5.70
2018,02,25,13,40,5.70
2018,02,25,13,41,5.80
2018,02,25,13,42,5.80
2018,02,25,13,43,5.80
2018,02,25,13,44,5.80
2018,02,25,13,45,5.80
2018,02,25,13,46,5.80
2018,02,25,13,47,5.80
2018,02,25,13,48,5.80
2018,02,25,13,49,5.80
2018,02,25,13,50,5.90
2018,02,25,13,51,5.90
2018,02,25,13,52,5.90
2018,02,25,13,53,5.80
2018,02,25,13,54,5.80
2018,02,25,13,55,5.80
2018,02,25,13,56,5.70
2018,02,25,13,57,5.70
2018,02,25,13,58,5.60
2018,02,25,13,59,5.60
2018,02,25,14,00,5.50
2018,02,25,14,01,5.50
2018,02,25,14,02,5.50
2018,02,25,14,03,5.40
2018,02,25,14,04,5.40
2018,02,25,14,05,5.40
2018,02,25,14,06,5.40
2018,02,25,14,07,5.40
2018,02,25,14,08,5.40
2018,02,25,14,09,5.40
2018,02,25,14,10,5.50
2018,02,25,14,11,5.50
2018,02,25,14,12,5.50
2018,02,25,14,13,5.50
2018,02,25,14,14,5.50
2018,02,25,14,15,5.50
2018,02,25,14,16,5.50
2018,02,25,14,17,5.60
2018,02,25,14,18,5.60
2018,02,25,14,19,5.60
2018,02,25,14,20,5.60
2018,02,25,14,21,5.70
2018,02,25,14,22,5.70
2018,02,25,14,23,5.70
2018,02,25,14,24,5.70
2018,02,25,14,25,5.70
2018,02,25,14,26,5.70
2018,02,25,14,27,5.70
2018,02,25,14,28,5.70
2018,02,25,14,29,5.70
2018,02,25,14,30,5.60
2018,02,25,14,31,5.60
2018,02,25,14,32,5.50
2018,02,25,14,33,5.40
2018,02,25,14,34,5.40
2018,02,25,14,35,5.40
2018,02,25,14,36,5.30
2018,02,25,14,37,5.30
2018,02,25,14,38,5.30
2018,02,25,14,39,5.20
2018,02,25,14,40,5.20
2018,02,25,14,41,5.10
2018,02,25,14,42,5.10
2018,02,25,14,43,5.10
2018,02,25,14,44,5.00
2018,02,25,14,45,5.00
2018,02,25,14,46,5.00
2018,02,25,14,47,4.90
2018,02,25,14,48,4.90
2018,02,25,14,49,4.90
2018,02,25,14,50,4.90
2018,02,25,14,51,4.90
2018,02,25,14,52,4.90
2018,02,25,14,53,4.80
2018,02,25,14,54,4.80
2018,02,25,14,55,4.80
2018,02,25,14,56,4.80
2018,02,25,14,57,4.80
2018,02,25,14,58,4.70
2018,02,25,14,59,4.70
2018,02,25,15,00,4.70
2018,02,25,15,01,4.70
2018,02,25,15,02,4.60
2018,02,25,15,03,4.60
2018,02,25,15,04,4.60
2018,02,25,15,05,4.60
2018,02,25,15,06,4.60
2018,02,25,15,07,4.50
2018,02,25,15,08,4.50
2018,02,25,15,09,4.50
2018,02,25,15,10,4.50
2018,02,25,15,11,4.50
2018,02,25,15,12,4.40
2018,02,25,15,13,4.40
2018,02,25,15,14,4.40
2018,02,25,15,15,4.40
2018,02,25,15,16,4.40
2018,02,25,15,17,4.40
2018,02,25,15,18,4.40
2018,02,25,15,19,4.40
2018,02,25,15,20,4.30
2018,02,25,15,21,4.30
2018,02,25,15,22,4.30
2018,02,25,15,23,4.30
2018,02,25,15,24,4.30
2018,02,25,15,25,4.30
2018,02,25,15,26,4.30
2018,02,25,15,27,4.30
2018,02,25,15,28,4.30
2018,02,25,15,29,4.20
2018,02,25,15,30,4.20
2018,02,25,15,31,4.20
2018,02,25,15,32,4.20
2018,02,25,15,33,4.20
2018,02,25,15,34,4.10
2018,02,25,15,35,4.10
2018,02,25,15,36,4.10
2018,02,25,15,37,4.10
2018,02,25,15,38,4.10
2018,02,25,15,39,4.00
2018,02,25,15,40,4.00
2018,02,25,15,41,4.00
2018,02,25,15,42,4.00
2018,02,25,15,43,4.00
2018,02,25,15,44,4.00
2018,02,25,15,45,4.00
2018,02,25,15,46,4.00
2018,02,25,15,47,4.10
2018,02,25,15,48,4.10
2018,02,25,15,49,4.10
2018,02,25,15,50,4.20
2018,02,25,15,51,4.20
2018,02,25,15,52,4.30
2018,02,25,15,53,4.30
2018,02,25,15,54,4.40
2018,02,25,15,55,4.40
2018,02,25,15,56,4.50
2018,02,25,15,57,4.60
2018,02,25,15,58,4.60
2018,02,25,15,59,4.70
2018,02,25,16,00,4.70
2018,02,25,16,01,4.80
2018,02,25,16,02,4.80
2018,02,25,16,03,4.80
2018,02,25,16,04,4.80
2018,02,25,16,05,4.80
2018,02,25,16,06,4.80
2018,02,25,16,07,4.80
2018,02,25,16,08,4.80
2018,02,25,16,09,4.70
2018,02,25,16,10,4.70
2018,02,25,16,11,4.70
2018,02,25,16,12,4.70
2018,02,25,16,13,4.60
2018,02,25,16,14,4.50
2018,02,25,16,15,4.40
2018,02,25,16,16,4.30
2018,02,25,16,17,4.20
2018,02,25,16,18,4.10
2018,02,25,16,19,4.00
2018,02,25,16,20,4.00
2018,02,25,16,21,3.90
2018,02,25,16,22,3.80
2018,02,25,16,23,3.70
2018,02,25,16,24,3.60
2018,02,25,16,25,3.50
2018,02,25,16,26,3.50
2018,02,25,16,27,3.40
2018,02,25,16,28,3.30
2018,02,25,16,29,3.30
2018,02,25,16,30,3.20
2018,02,25,16,31,3.20
2018,02,25,16,32,3.20
2018,02,25,16,33,3.10
2018,02,25,16,34,3.10
2018,02,25,16,35,3.10
2018,02,25,16,36,3.00
2018,02,25,16,37,3.00
2018,02,25,16,38,3.00
2018,02,25,16,39,2.90
2018,02,25,16,40,2.90
2018,02,25,16,41,2.90
2018,02,25,16,42,2.90
2018,02,25,16,43,2.90
2018,02,25,16,44,2.90
2018,02,25,16,45,2.80
2018,02,25,16,46,2.80
2018,02,25,16,47,2.80
2018,02,25,16,48,2.80
2018,02,25,16,49,2.80
2018,02,25,16,50,2.80
2018,02,25,16,51,2.80
2018,02,25,16,52,2.80
2018,02,25,16,53,2.80
2018,02,25,16,54,2.80
2018,02,25,16,55,2.80
2018,02,25,16,56,2.80
2018,02,25,16,57,2.70
2018,02,25,16,58,2.70
2018,02,25,16,59,2.70
2018,02,25,17,00,2.70
2018,02,25,17,01,2.70
2018,02,25,17,02,2.70
2018,02,25,17,03,2.70
2018,02,25,17,04,2.70
2018,02,25,17,05,2.70
2018,02,25,17,06,2.70
2018,02,25,17,07,2.70
2018,02,25,17,08,2.70
2018,02,25,17,09,2.70
2018,02,25,17,10,2.70
2018,02,25,17,11,2.70
2018,02,25,17,12,2.70
2018,02,25,17,13,2.70
2018,02,25,17,14,2.70
2018,02,25,17,15,2.70
2018,02,25,17,16,2.70
2018,02,25,17,17,2.60
2018,02,25,17,18,2.60
2018,02,25,17,19,2.60
2018,02,25,17,20,2.60
2018,02,25,17,21,2.60
2018,02,25,17,22,2.60
2018,02,25,17,23,2.50
2018,02,25,17,24,2.50
2018,02,25,17,25,2.40
2018,02,25,17,26,2.40
2018,02,25,17,27,2.40
2018,02,25,17,28,2.40
2018,02,25,17,29,2.30
2018,02,25,17,30,2.30
2018,02,25,17,31,2.30
2018,02,25,17,32,2.20
2018,02,25,17,33,2.20
2018,02,25,17,34,2.20
2018,02,25,17,35,2.20
2018,02,25,17,36,2.10
2018,02,25,17,37,2.10
2018,02,25,17,38,2.10
2018,02,25,17,39,2.00
2018,02,25,17,40,2.00
2018,02,25,17,41,2.00
2018,02,25,17,42,2.00
2018,02,25,17,43,1.90
2018,02,25,17,44,1.90
2018,02,25,17,45,1.90
2018,02,25,17,46,1.90
2018,02,25,17,47,1.80
2018,02,25,17,48,1.80
2018,02,25,17,49,1.80
2018,02,25,17,50,1.80
2018,02,25,17,51,1.70
2018,02,25,17,52,1.70
2018,02,25,17,53,1.70
2018,02,25,17,54,1.70
2018,02,25,17,55,1.70
2018,02,25,17,56,1.70
2018,02,25,17,57,1.70
2018,02,25,17,58,1.70
2018,02,25,17,59,1.70
2018,02,25,18,00,1.70
2018,02,25,18,01,1.70
2018,02,25,18,02,1.70
2018,02,25,18,03,1.80
2018,02,25,18,04,1.80
2018,02,25,18,05,1.80
2018,02,25,18,06,1.90
2018,02,25,18,07,1.90
2018,02,25,18,08,1.90
2018,02,25,18,09,1.90
2018,02,25,18,10,1.90
2018,02,25,18,11,1.90
2018,02,25,18,12,1.90
2018,02,25,18,13,1.90
2018,02,25,18,14,1.90
2018,02,25,18,15,1.90
2018,02,25,18,16,1.90
2018,02,25,18,17,1.90
2018,02,25,18,18,1.90
2018,02,25,18,19,1.90
2018,02,25,18,20,1.90
2018,02,25,18,21,1.90
2018,02,25,18,22,1.90
2018,02,25,18,23,1.90
2018,02,25,18,24,1.90
2018,02,25,18,25,1.90
2018,02,25,18,26,1.90
2018,02,25,18,27,1.90
2018,02,25,18,28,1.90
2018,02,25,18,29,1.90
2018,02,25,18,30,1.90
2018,02,25,18,31,1.90
2018,02,25,18,32,1.90
2018,02,25,18,33,1.90
2018,02,25,18,34,1.90
2018,02,25,18,35,1.90
2018,02,25,18,36,1.90
2018,02,25,18,37,1.90
2018,02,25,18,38,1.90
2018,02,25,18,39,1.90
2018,02,25,18,40,1.90
2018,02,25,18,41,1.90
2018,02,25,18,42,1.90
2018,02,25,18,43,1.80
2018,02,25,18,44,1.80
2018,02,25,18,45,1.80
2018,02,25,18,46,1.80
2018,02,25,18,47,1.80
2018,02,25,18,48,1.80
2018,02,25,18,49,1.80
2018,02,25,18,50,1.80
2018,02,25,18,51,1.70
2018,02,25,18,52,1.70
2018,02,25,18,53,1.70
2018,02,25,18,54,1.60
2018,02,25,18,55,1.60
2018,02,25,18,56,1.50
2018,02,25,18,57,1.50
2018,02,25,18,58,1.50
2018,02,25,18,59,1.40
2018,02,25,19,00,1.40
2018,02,25,19,01,1.30
2018,02,25,19,02,1.30
2018,02,25,19,03,1.30
2018,02,25,19,04,1.20
2018,02,25,19,05,1.20
2018,02,25,19,06,1.20
2018,02,25,19,07,1.20
2018,02,25,19,08,1.10
2018,02,25,19,09,1.10
2018,02,25,19,10,1.10
2018,02,25,19,11,1.00
2018,02,25,19,12,1.00
2018,02,25,19,13,0.90
2018,02,25,19,14,0.90
2018,02,25,19,15,0.90
2018,02,25,19,16,0.80
2018,02,25,19,17,0.80
2018,02,25,19,18,0.70
2018,02,25,19,19,0.70
2018,02,25,19,20,0.70
2018,02,25,19,21,0.60
2018,02,25,19,22,0.60
2018,02,25,19,23,0.50
2018,02,25,19,24,0.50
2018,02,25,19,25,0.40
2018,02,25,19,26,0.40
2018,02,25,19,27,0.40
2018,02,25,19,28,0.30
2018,02,25,19,29,0.30
2018,02,25,19,30,0.30
2018,02,25,19,31,0.30
2018,02,25,19,32,0.20
2018,02,25,19,33,0.20
2018,02,25,19,34,0.20
2018,02,25,19,35,0.20
2018,02,25,19,36,0.20
2018,02,25,19,37,0.10
2018,02,25,19,38,0.10
2018,02,25,19,39,0.10
2018,02,25,19,40,0.10
2018,02,25,19,41,0.00
2018,02,25,19,42,0.00
2018,02,25,19,43,0.00
2018,02,25,19,44,0.00
2018,02,25,19,45,-0.10
2018,02,25,19,46,-0.10
2018,02,25,19,47,-0.10
2018,02,25,19,48,-0.10
2018,02,25,19,49,-0.10
2018,02,25,19,50,-0.10
2018,02,25,19,51,-0.10
2018,02,25,19,52,-0.10
2018,02,25,19,53,-0.10
2018,02,25,19,54,-0.10
2018,02,25,19,55,0.00
2018,02,25,19,56,-0.10
2018,02,25,19,57,0.00
2018,02,25,19,58,0.00
2018,02,25,19,59,0.00
2018,02,25,20,00,0.00
2018,02,25,20,01,0.00
2018,02,25,20,02,0.00
2018,02,25,20,03,0.00
2018,02,25,20,04,0.00
2018,02,25,20,05,0.00
2018,02,25,20,06,0.00
2018,02,25,20,07,0.00
2018,02,25,20,08,0.00
2018,02,25,20,09,0.00
2018,02,25,20,10,0.00
2018,02,25,20,11,0.00
2018,02,25,20,12,0.00
2018,02,25,20,13,0.00
2018,02,25,20,14,0.00
2018,02,25,20,15,0.00
2018,02,25,20,16,0.00
2018,02,25,20,17,0.00
2018,02,25,20,18,0.00
2018,02,25,20,19,0.00
2018,02,25,20,20,-0.10
2018,02,25,20,21,-0.10
2018,02,25,20,22,-0.10
2018,02,25,20,23,-0.10
2018,02,25,20,24,-0.10
2018,02,25,20,25,-0.10
2018,02,25,20,26,-0.10
2018,02,25,20,27,-0.10
2018,02,25,20,28,-0.10
2018,02,25,20,29,-0.10
2018,02,25,20,30,-0.10
2018,02,25,20,31,-0.10
2018,02,25,20,32,-0.10
2018,02,25,20,33,-0.10
2018,02,25,20,34,-0.10
2018,02,25,20,35,-0.10
2018,02,25,20,36,-0.10
2018,02,25,20,37,-0.10
2018,02,25,20,38,-0.10
2018,02,25,20,39,-0.10
2018,02,25,20,40,-0.10
2018,02,25,20,41,-0.10
2018,02,25,20,42,-0.10
2018,02,25,20,43,-0.10
2018,02,25,20,44,-0.10
2018,02,25,20,45,-0.10
2018,02,25,20,46,-0.10
2018,02,25,20,47,-0.10
2018,02,25,20,48,-0.10
2018,02,25,20,49,-0.10
2018,02,25,20,50,-0.10
2018,02,25,20,51,-0.20
2018,02,25,20,52,-0.20
2018,02,25,20,53,-0.20
2018,02,25,20,54,-0.20
2018,02,25,20,55,-0.20
2018,02,25,20,56,-0.20
2018,02,25,20,57,-0.20
2018,02,25,20,58,-0.20
2018,02,25,20,59,-0.20
2018,02,25,21,00,-0.20
2018,02,25,21,01,-0.20
2018,02,25,21,02,-0.20
2018,02,25,21,03,-0.20
2018,02,25,21,04,-0.20
2018,02,25,21,05,-0.20
2018,02,25,21,06,-0.20
2018,02,25,21,07,-0.20
2018,02,25,21,08,-0.20
2018,02,25,21,09,-0.20
2018,02,25,21,10,-0.20
2018,02,25,21,11,-0.20
2018,02,25,21,12,-0.20
2018,02,25,21,13,-0.20
2018,02,25,21,14,-0.20
2018,02,25,21,15,-0.20
2018,02,25,21,16,-0.20
2018,02,25,21,17,-0.20
2018,02,25,21,18,-0.20
2018,02,25,21,19,-0.20
2018,02,25,21,20,-0.30
2018,02,25,21,21,-0.30
2018,02,25,21,22,-0.30
2018,02,25,21,23,-0.30
2018,02,25,21,24,-0.20
2018,02,25,21,25,-0.20
2018,02,25,21,26,-0.20
2018,02,25,21,27,-0.20
2018,02,25,21,28,-0.20
2018,02,25,21,29,-0.20
2018,02,25,21,30,-0.20
2018,02,25,21,31,-0.20
2018,02,25,21,32,-0.20
2018,02,25,21,33,-0.20
2018,02,25,21,34,-0.20
2018,02,25,21,35,-0.20
2018,02,25,21,36,-0.10
2018,02,25,21,37,-0.10
2018,02,25,21,38,-0.10
2018,02,25,21,39,-0.10
2018,02,25,21,40,-0.10
2018,02,25,21,41,-0.10
2018,02,25,21,42,-0.10
2018,02,25,21,43,-0.10
2018,02,25,21,44,-0.10
2018,02,25,21,45,-0.10
2018,02,25,21,46,-0.10
2018,02,25,21,47,-0.10
2018,02,25,21,48,-0.10
2018,02,25,21,49,-0.10
2018,02,25,21,50,-0.10
2018,02,25,21,51,-0.10
2018,02,25,21,52,-0.10
2018,02,25,21,53,-0.10
2018,02,25,21,54,-0.10
2018,02,25,21,55,-0.10
2018,02,25,21,56,-0.10
2018,02,25,21,57,0.00
2018,02,25,21,58,0.00
2018,02,25,21,59,0.00
2018,02,25,22,00,0.00
2018,02,25,22,01,0.00
2018,02,25,22,02,0.10
2018,02,25,22,03,0.10
2018,02,25,22,04,0.10
2018,02,25,22,05,0.10
2018,02,25,22,06,0.10
2018,02,25,22,07,0.10
2018,02,25,22,08,0.10
2018,02,25,22,09,0.10
2018,02,25,22,10,0.10
2018,02,25,22,11,0.20
2018,02,25,22,12,0.20
2018,02,25,22,13,0.20
2018,02,25,22,14,0.20
2018,02,25,22,15,0.20
2018,02,25,22,16,0.20
2018,02,25,22,17,0.20
2018,02,25,22,18,0.20
2018,02,25,22,19,0.20
2018,02,25,22,20,0.20
2018,02,25,22,21,0.20
2018,02,25,22,22,0.20
2018,02,25,22,23,0.20
2018,02,25,22,24,0.20
2018,02,25,22,25,0.20
2018,02,25,22,26,0.20
2018,02,25,22,27,0.20
2018,02,25,22,28,0.20
2018,02,25,22,29,0.20
2018,02,25,22,30,0.20
2018,02,25,22,31,0.20
2018,02,25,22,32,0.20
2018,02,25,22,33,0.20
2018,02,25,22,34,0.30
2018,02,25,22,35,0.30
2018,02,25,22,36,0.30
2018,02,25,22,37,0.30
2018,02,25,22,38,0.30
2018,02,25,22,39,0.30
2018,02,25,22,40,0.30
2018,02,25,22,41,0.30
2018,02,25,22,42,0.30
2018,02,25,22,43,0.20
2018,02,25,22,44,0.20
2018,02,25,22,45,0.20
2018,02,25,22,46,0.20
2018,02,25,22,47,0.20
2018,02,25,22,48,0.10
2018,02,25,22,49,0.10
2018,02,25,22,50,0.10
2018,02,25,22,51,0.10
2018,02,25,22,52,0.00
2018,02,25,22,53,0.00
2018,02,25,22,54,-0.10
2018,02,25,22,55,-0.10
2018,02,25,22,56,-0.10
2018,02,25,22,57,-0.10
2018,02,25,22,58,-0.10
2018,02,25,22,59,-0.20
2018,02,25,23,00,-0.20
2018,02,25,23,01,-0.20
2018,02,25,23,02,-0.20
2018,02,25,23,03,-0.20
2018,02,25,23,04,-0.20
2018,02,25,23,05,-0.30
2018,02,25,23,06,-0.30
2018,02,25,23,07,-0.30
2018,02,25,23,08,-0.30
2018,02,25,23,09,-0.30
2018,02,25,23,10,-0.30
2018,02,25,23,11,-0.30
2018,02,25,23,12,-0.30
2018,02,25,23,13,-0.30
2018,02,25,23,14,-0.30
2018,02,25,23,15,-0.30
2018,02,25,23,16,-0.30
2018,02,25,23,17,-0.30
2018,02,25,23,18,-0.30
2018,02,25,23,19,-0.30
2018,02,25,23,20,-0.30
2018,02,25,23,21,-0.30
2018,02,25,23,22,-0.30
2018,02,25,23,23,-0.30
2018,02,25,23,24,-0.30
2018,02,25,23,25,-0.30
2018,02,25,23,26,-0.30
2018,02,25,23,27,-0.30
2018,02,25,23,28,-0.30
2018,02,25,23,29,-0.30
2018,02,25,23,30,-0.30
2018,02,25,23,31,-0.30
2018,02,25,23,32,-0.40
2018,02,25,23,33,-0.40
2018,02,25,23,34,-0.40
2018,02,25,23,35,-0.40
2018,02,25,23,36,-0.40
2018,02,25,23,37,-0.40
2018,02,25,23,38,-0.40
2018,02,25,23,39,-0.50
2018,02,25,23,40,-0.50
2018,02,25,23,41,-0.50
2018,02,25,23,42,-0.50
2018,02,25,23,43,-0.50
2018,02,25,23,44,-0.60
2018,02,25,23,45,-0.60
2018,02,25,23,46,-0.60
2018,02,25,23,47,-0.60
2018,02,25,23,48,-0.60
2018,02,25,23,49,-0.60
2018,02,25,23,50,-0.60
2018,02,25,23,51,-0.60
2018,02,25,23,52,-0.60
2018,02,25,23,53,-0.70
2018,02,25,23,54,-0.70
2018,02,25,23,55,-0.70
2018,02,25,23,56,-0.70
2018,02,25,23,57,-0.70
2018,02,25,23,58,-0.70
2018,02,25,23,59,-0.70
